Location: Newark
(48.8833°N, 0.9236°W)
Time: 13:15:12
(UTC+00:00)

Transit 4A - Pass Details

Date: 24 November 2019
Orbit: 870 x 974 km, 66.8° (Epoch: 15 December)

Event Time Altitude Azimuth Distance (km) Brightness Sun altitude
Exits shadow 06:05:33 14° 313° (NW) 2,269 9.4 -12.9°
Maximum altitude 06:10:19 46° 245° (WSW) 1,167 8.1 -12.1°
Drops below altitude 10° 06:15:48 10° 173° (S) 2,511 10.5 -11.3°
Sets 06:18:21 0° 168° (SSE) 3,443 11.3 -10.9°
